STARLINK-34910, 66269

Orbit data source: Space-Track

STARLINK-34910, 66269 is a payload satellite owned by SpaceX/Seattle (US) in LEO that was launched on Fri, 31 Oct 2025 UTC via an FALCON 9 launch vehicle from the Air Force Western Test Range (AFWTR). Payload-class satellites include a variety of spacecraft equipped with specific instruments for various scientific and technological missions. These include communications satellites like Starlink; space stations such as the ISS; scientific satellites like the Hubble; Earth observation satellites from companies like Planet Labs, Umbra, and HawkEye 360; GPS; miniature CubeSats for education and research; and military/defense satellites.

Loading next visibility...
Identifier
66269, 2025-247E
Orbit
LEO
Country
Flag of USUS
Related business
Manufacturer
SpaceX/Seattle
Mission
Operational Commercial Communications
Bus & Motor
STARLINK V2MO, Unknown motor
Mass
575 kg wet, ~530 kg dry
Launch date (UTC)
2025-10-31 (8 months ago)
Launch vehicle
FALCON 9
Launch site
Air Force Western Test Range (AFWTR)
Object type
Payload
Rocket body
Debris
Shape & HBR
Box + 2 Pan, 17.7 m
Radar Cross Section
36.964 m², Large (>1 m²)

Expand to show TLE details & history
Last TLE update: 22 hours ago

TLE from 22 hours ago
0 STARLINK-34910
1 66269U 25247E   26170.94579760  .00016481  00000-0  49772-3 0  9994
2 66269  53.1597  74.7233 0001542 113.3139 246.8026 15.34408288 36718
Epoch: 2026-06-19T22:41Z
TLE epoch observation values (Epoch: 2026-06-19T22:41:56.912Z)
Latitude
-0.00003°
Longitude
-173.93134°
Altitude
463.996 km
Speed
7.635 km/s
True Right ascension
04h 58m 53s
True Declination
0° 00' 00"
Sunlit
Object was in daylight at epoch
Visualization orbit readout
Latitude
Unknown
Longitude
Unknown
Altitude
Unknown
Speed
Unknown
Apparent Right ascension
Unknown
Apparent Declination
Unknown
Sunlit
N/A
Visualization observer readout
Local Sidereal Time
07:17:38
Azimuth
Unknown
Elevation
Unknown
Doppler factor
Unknown
Orbital elements
Apogee altitude
463.99 km
Perigee altitude
461.881 km
Semi-major axis
6,841.073 km
Eccentricity
0.00015
Inclination
53.1597°
RAAN
74.7233°
Arg. of periapsis
113.3139°
True anomaly
246.78636°
Mean anomaly
246.8026°
Eccentric anomaly
246.79448°
Mean motion
3.83581 °/min
Orbital period
93.85 mins
BSTAR
0.00049772
Loading maneuver chart data...
Computing Atmospheric mass density...
Loading historical data...
Loading historical data...
Loading historical data...
Loading historical data...
Loading historical data...
Loading historical data...
Loading historical data...

Documentation

Showing up to 5 results
|